Weather History for KFSW - February, 2013

Change the Weather History Date:

Wednesday, February 27, 2013

  Actual Average Record
Temperature  
Mean Temperature 32 °F -  
Max Temperature 33 °F 41 °F 71 °F (1976)
Min Temperature 30 °F 24 °F -9 °F (2015)
Degree Days  
Heating Degree Days 34    
Moisture  
Dew Point 28 °F    
Average Humidity 85    
Maximum Humidity 93    
Minimum Humidity 81    
Precipitation  
Precipitation 0.01 in - - ()
Sea Level Pressure  
Sea Level Pressure 29.76 in    
Wind  
Wind Speed 12 mph (NW)    
Max Wind Speed 17 mph    
Max Gust Speed 20 mph    
Visibility 4 miles    
Events Snow    
Averages and records for this station are not official NWS values.
T = Trace of Precipitation, MM = Missing Value Source: NWS Daily Summary

Daily Weather History Graph

Daily Weather History Graph

Search for Another Location

Airport or City:

Trip Planner

Search our weather history database for the weather conditions in past years. The results will help you decide how hot, cold, wet, or windy it might be!

Date:

Astronomy

Feb. 27, 2013 Rise Set
Actual Time 6:41 AM CST 5:54 PM CST
Civil Twilight 6:14 AM CST 6:22 PM CST
Nautical Twilight 5:42 AM CST 6:53 PM CST
Astronomical Twilight 5:11 AM CST 7:25 PM CST
Moon 8:17 PM CST (2/27) 7:16 AM CST (2/27)
Length of Visible Light 12h 07m
Length of Day
11h 12m
Waning Gibbous, 96% of the Moon is Illuminated
Feb 27
Waning Gibbous
Mar 4
Last Quarter
Mar 11
New
Mar 19
First Quarter
Mar 27
Full

Hourly Weather History & Observations

Time (CST) Temp. Windchill Dew Point Humidity Pressure Visibility Wind Dir Wind Speed Gust Speed Precip Events Conditions
12:15 AM 33.8 °F 24.8 °F 28.4 °F 81% 29.66 in 10.0 mi NNW 12.7 mph - N/A   Overcast
12:35 AM 33.8 °F 23.9 °F 28.4 °F 81% 29.66 in 10.0 mi NNW 15.0 mph 19.6 mph N/A   Overcast
12:55 AM 33.8 °F 24.3 °F 28.4 °F 81% 29.67 in 10.0 mi NNW 13.8 mph 18.4 mph N/A   Overcast
1:15 AM 33.8 °F 23.9 °F 28.4 °F 81% 29.67 in 10.0 mi NNW 15.0 mph - N/A   Overcast
1:35 AM 33.8 °F 23.2 °F 28.4 °F 81% 29.67 in 10.0 mi NNW 17.3 mph - N/A   Overcast
1:55 AM 32.0 °F 21.6 °F 28.4 °F 87% 29.67 in 10.0 mi North 15.0 mph - N/A   Overcast
2:15 AM 32.0 °F 23.0 °F 28.4 °F 87% 29.68 in 7.0 mi NNW 11.5 mph - N/A   Overcast
2:35 AM 32.0 °F 22.5 °F 28.4 °F 87% 29.67 in 5.0 mi NNW 12.7 mph - N/A   Overcast
2:55 AM 32.0 °F 24.2 °F 28.4 °F 87% 29.67 in 4.0 mi NNW 9.2 mph - N/A   Overcast
3:15 AM 32.0 °F 23.0 °F 28.4 °F 87% 29.68 in 3.0 mi NNW 11.5 mph - N/A   Overcast
3:35 AM 32.0 °F 24.2 °F 28.4 °F 87% 29.68 in 4.0 mi NW 9.2 mph - N/A   Overcast
3:55 AM 32.0 °F 23.6 °F 28.4 °F 87% 29.68 in 4.0 mi NW 10.4 mph - N/A   Overcast
4:15 AM 32.0 °F 23.6 °F 28.4 °F 87% 29.69 in 4.0 mi NW 10.4 mph - N/A   Overcast
4:35 AM 32.0 °F 23.0 °F 28.4 °F 87% 29.69 in 5.0 mi NW 11.5 mph - N/A   Overcast
4:55 AM 32.0 °F 24.2 °F 28.4 °F 87% 29.69 in 4.0 mi NW 9.2 mph - N/A   Overcast
5:15 AM 30.2 °F 21.9 °F 28.4 °F 93% 29.68 in 3.0 mi NW 9.2 mph - N/A   Overcast
5:35 AM 32.0 °F 23.0 °F 28.4 °F 87% 29.69 in 4.0 mi NW 11.5 mph - N/A   Overcast
5:55 AM 30.2 °F 20.8 °F 28.4 °F 93% 29.69 in 7.0 mi NW 11.5 mph - N/A   Overcast
6:15 AM 32.0 °F 23.6 °F 28.4 °F 87% 29.69 in 5.0 mi NW 10.4 mph - N/A Snow Light Snow
6:35 AM 32.0 °F 23.0 °F 28.4 °F 87% 29.70 in 7.0 mi NW 11.5 mph - N/A   Overcast
6:55 AM 32.0 °F 24.2 °F 28.4 °F 87% 29.70 in 7.0 mi NNW 9.2 mph - N/A   Overcast
7:15 AM 32.0 °F 24.2 °F 28.4 °F 87% 29.71 in 7.0 mi NW 9.2 mph - N/A   Overcast
7:35 AM 32.0 °F 24.2 °F 28.4 °F 87% 29.72 in 7.0 mi NNW 9.2 mph - N/A   Overcast
7:55 AM 32.0 °F 24.2 °F 28.4 °F 87% 29.72 in 7.0 mi NW 9.2 mph - N/A   Overcast
8:15 AM 32.0 °F 24.2 °F 28.4 °F 87% 29.73 in 7.0 mi NW 9.2 mph - N/A   Overcast
8:35 AM 32.0 °F 23.6 °F 28.4 °F 87% 29.73 in 5.0 mi NW 10.4 mph - N/A Snow Light Snow
8:55 AM 32.0 °F 24.8 °F 28.4 °F 87% 29.73 in 4.0 mi NW 8.1 mph - N/A Snow Light Snow
9:15 AM 32.0 °F 24.8 °F 28.4 °F 87% 29.74 in 1.0 mi NW 8.1 mph - N/A Snow Light Snow
9:35 AM 32.0 °F 23.6 °F 28.4 °F 87% 29.74 in 1.5 mi NW 10.4 mph - N/A Snow Light Snow
9:55 AM 33.8 °F 25.8 °F 28.4 °F 81% 29.74 in 2.0 mi NW 10.4 mph - N/A Snow Light Snow
10:15 AM 33.8 °F 25.3 °F 28.4 °F 81% 29.74 in 2.5 mi WNW 11.5 mph - N/A Snow Light Snow
10:35 AM 33.8 °F 25.8 °F 28.4 °F 81% 29.74 in 1.5 mi WNW 10.4 mph - N/A Snow Light Snow
10:55 AM 33.8 °F 24.3 °F 28.4 °F 81% 29.74 in 1.2 mi NW 13.8 mph - N/A Snow Light Snow
11:15 AM 33.8 °F 24.3 °F 28.4 °F 81% 29.74 in 1.2 mi NW 13.8 mph - N/A Snow Light Snow
11:35 AM 33.8 °F 23.5 °F 28.4 °F 81% 29.74 in 2.0 mi NW 16.1 mph - N/A Snow Light Snow
11:55 AM 33.8 °F 24.8 °F 28.4 °F 81% 29.74 in 1.2 mi NW 12.7 mph - N/A Snow Light Snow
12:15 PM 33.8 °F 23.5 °F 28.4 °F 81% 29.74 in 1.2 mi NW 16.1 mph - N/A Snow Light Snow
12:55 PM 33.8 °F 24.3 °F 28.4 °F 81% 29.74 in 1.2 mi NW 13.8 mph 19.6 mph 0.01 in Snow Light Snow
1:15 PM 33.8 °F 24.3 °F 28.4 °F 81% 29.74 in 1.5 mi NW 13.8 mph - N/A Snow Light Snow
1:35 PM 33.8 °F 23.9 °F 28.4 °F 81% 29.75 in 2.0 mi NW 15.0 mph - N/A Snow Light Snow
2:15 PM 33.8 °F 24.3 °F 28.4 °F 81% 29.76 in 1.5 mi NW 13.8 mph - N/A Snow Light Snow
2:35 PM 33.8 °F 23.9 °F 28.4 °F 81% 29.76 in 1.8 mi NW 15.0 mph 18.4 mph N/A Snow Light Snow
2:55 PM 33.8 °F 24.8 °F 28.4 °F 81% 29.77 in 1.5 mi WNW 12.7 mph - N/A Snow Light Snow
3:15 PM 33.8 °F 25.3 °F 28.4 °F 81% 29.78 in 1.8 mi WNW 11.5 mph - N/A Snow Light Snow
3:35 PM 33.8 °F 24.8 °F 28.4 °F 81% 29.78 in 1.5 mi WNW 12.7 mph - N/A Snow Light Snow
3:55 PM 33.8 °F 24.3 °F 28.4 °F 81% 29.79 in 2.5 mi WNW 13.8 mph - N/A Snow Light Snow
4:15 PM 33.8 °F 24.3 °F 28.4 °F 81% 29.79 in 4.0 mi WNW 13.8 mph - N/A Snow Light Snow
4:35 PM 33.8 °F 24.8 °F 28.4 °F 81% 29.80 in 3.0 mi WNW 12.7 mph - N/A Snow Light Snow
4:55 PM 33.8 °F 25.3 °F 28.4 °F 81% 29.80 in 3.0 mi WNW 11.5 mph - N/A Snow Light Snow
5:15 PM 33.8 °F 24.8 °F 28.4 °F 81% 29.81 in 2.5 mi WNW 12.7 mph - N/A Snow Light Snow
5:35 PM 32.0 °F 23.6 °F 28.4 °F 87% 29.82 in 1.2 mi WNW 10.4 mph - N/A Snow Light Snow
5:55 PM 32.0 °F 23.0 °F 28.4 °F 87% 29.82 in 2.0 mi WNW 11.5 mph - N/A Snow Light Snow
6:15 PM 32.0 °F 22.1 °F 28.4 °F 87% 29.83 in 1.2 mi WNW 13.8 mph - N/A Snow Light Snow
6:35 PM 32.0 °F 23.0 °F 28.4 °F 87% 29.83 in 4.0 mi WNW 11.5 mph - N/A Snow Light Snow
6:55 PM 32.0 °F 23.0 °F 28.4 °F 87% 29.84 in 7.0 mi NW 11.5 mph - N/A Snow Light Snow
7:15 PM 32.0 °F 22.5 °F 28.4 °F 87% 29.84 in 10.0 mi WNW 12.7 mph - N/A Snow Light Snow
7:35 PM 32.0 °F 21.6 °F 28.4 °F 87% 29.84 in 7.0 mi WNW 15.0 mph - N/A Snow Light Snow
8:15 PM 32.0 °F 22.1 °F 28.4 °F 87% 29.84 in 7.0 mi WNW 13.8 mph - N/A Snow Light Snow
8:35 PM 32.0 °F 22.5 °F 28.4 °F 87% 29.85 in 7.0 mi NW 12.7 mph - N/A Snow Light Snow
8:55 PM 32.0 °F 22.5 °F 28.4 °F 87% 29.85 in 7.0 mi WNW 12.7 mph - N/A Snow Light Snow
9:15 PM 30.2 °F 21.3 °F 26.6 °F 86% 29.86 in 7.0 mi WNW 10.4 mph - N/A Snow Light Snow
9:35 PM 30.2 °F 20.8 °F 28.4 °F 93% 29.86 in 7.0 mi WNW 11.5 mph - N/A   Overcast
9:55 PM 32.0 °F 23.0 °F 28.4 °F 87% 29.86 in 7.0 mi WNW 11.5 mph - N/A   Overcast
10:35 PM 30.2 °F 20.8 °F 28.4 °F 93% 29.87 in 2.0 mi WNW 11.5 mph - N/A Snow Light Snow
10:55 PM 32.0 °F 23.6 °F 28.4 °F 87% 29.87 in 2.0 mi WNW 10.4 mph - N/A Snow Light Snow
11:15 PM 32.0 °F 22.5 °F 28.4 °F 87% 29.87 in 3.0 mi WNW 12.7 mph - N/A Snow Light Snow
11:35 PM 32.0 °F 23.6 °F 28.4 °F 87% 29.87 in 2.5 mi WNW 10.4 mph - N/A Snow Light Snow
11:55 PM 32.0 °F 22.5 °F 28.4 °F 87% 29.87 in 4.0 mi WNW 12.7 mph 17.3 mph N/A Snow Light Snow